Weather History for KSRQ - September, 2012

Change the Weather History Date:

Wednesday, September 5, 2012

  Actual Average Record
Temperature  
Mean Temperature 82 °F 82 °F  
Max Temperature 89 °F 89 °F 96 °F (1923)
Min Temperature 75 °F 75 °F 69 °F (1960)
Degree Days  
Heating Degree Days 0 0  
Month to date heating degree days 0 0  
Since 1 July heating degree days 0 0  
Cooling Degree Days 17 17  
Month to date cooling degree days 89 85  
Year to date cooling degree days 2843 2382  
Growing Degree Days 32 (Base 50)    
Moisture  
Dew Point 74 °F    
Average Humidity 77    
Maximum Humidity 94    
Minimum Humidity 63    
Precipitation  
Precipitation 0.00 in 0.33 in 3.39 in (2003)
Month to date precipitation 0.00 1.70  
Year to date precipitation 38.43 40.03  
Sea Level Pressure  
Sea Level Pressure 29.96 in    
Wind  
Wind Speed 7 mph (SSE)    
Max Wind Speed 14 mph    
Max Gust Speed 18 mph    
Visibility 10 miles    
Events      
T = Trace of Precipitation, MM = Missing Value Source: NWS Daily Summary

Daily Weather History Graph

Daily Weather History Graph

Search for Another Location

Airport or City:

Trip Planner

Search our weather history database for the weather conditions in past years. The results will help you decide how hot, cold, wet, or windy it might be!

Date:

Astronomy

Sep. 05, 2012 Rise Set
Actual Time 7:11 AM EDT 7:45 PM EDT
Civil Twilight 6:47 AM EDT 8:09 PM EDT
Nautical Twilight 6:20 AM EDT 8:36 PM EDT
Astronomical Twilight 5:51 AM EDT 9:04 PM EDT
Moon 10:48 PM EDT (9/5) 11:41 AM EDT (9/5)
Length of Visible Light 13h 21m
Length of Day
12h 34m
Waning Gibbous, 76% of the Moon is Illuminated
Sep 5
Waning Gibbous
Sep 8
Last Quarter
Sep 15
New
Sep 22
First Quarter
Sep 29
Full

Hourly Weather History & Observations

Time (EDT) Temp. Heat Index Dew Point Humidity Pressure Visibility Wind Dir Wind Speed Gust Speed Precip Events Conditions
12:53 AM 79.0 °F - 73.0 °F 82% 29.97 in 10.0 mi Calm Calm - N/A   Partly Cloudy
1:53 AM 77.0 °F - 73.0 °F 88% 29.97 in 10.0 mi ESE 3.5 mph - N/A   Partly Cloudy
2:53 AM 77.0 °F - 73.9 °F 90% 29.95 in 10.0 mi ESE 3.5 mph - N/A   Scattered Clouds
3:53 AM 77.0 °F - 73.0 °F 88% 29.94 in 10.0 mi ESE 3.5 mph - N/A   Scattered Clouds
4:53 AM 75.9 °F - 73.0 °F 91% 29.94 in 10.0 mi SE 5.8 mph - N/A   Clear
5:53 AM 75.0 °F - 73.0 °F 94% 29.95 in 10.0 mi ESE 4.6 mph - N/A   Clear
6:53 AM 75.0 °F - 73.0 °F 94% 29.96 in 10.0 mi SE 6.9 mph - N/A   Clear
7:53 AM 75.9 °F - 73.0 °F 91% 29.96 in 10.0 mi ESE 5.8 mph - N/A   Clear
8:53 AM 80.1 °F 84.5 °F 73.9 °F 81% 29.97 in 10.0 mi SE 9.2 mph - N/A   Clear
9:53 AM 84.0 °F 91.2 °F 73.9 °F 72% 29.97 in 10.0 mi SE 5.8 mph - N/A   Clear
10:30 AM 84.2 °F 90.9 °F 73.4 °F 70% 29.98 in 10.0 mi SSE 5.8 mph - N/A   Mostly Cloudy
10:51 AM 84.2 °F 90.9 °F 73.4 °F 70% 29.98 in 10.0 mi South 9.2 mph - N/A   Partly Cloudy
10:53 AM 86.0 °F 93.0 °F 73.0 °F 65% 29.99 in 10.0 mi South 10.4 mph - N/A   Partly Cloudy
11:53 AM 87.1 °F 94.5 °F 73.0 °F 63% 29.99 in 10.0 mi South 11.5 mph 17.3 mph N/A   Clear
12:53 PM 87.1 °F 95.4 °F 73.9 °F 65% 29.98 in 10.0 mi SSW 10.4 mph - N/A   Clear
1:53 PM 88.0 °F 96.5 °F 73.9 °F 63% 29.96 in 10.0 mi WSW 10.4 mph - N/A   Clear
2:53 PM 89.1 °F 99.1 °F 75.0 °F 63% 29.95 in 10.0 mi WSW 11.5 mph - N/A   Partly Cloudy
3:53 PM 88.0 °F 96.5 °F 73.9 °F 63% 29.93 in 10.0 mi WSW 10.4 mph - N/A   Clear
4:53 PM 87.1 °F 94.5 °F 73.0 °F 63% 29.92 in 10.0 mi WSW 11.5 mph - N/A   Clear
5:53 PM 87.1 °F 95.4 °F 73.9 °F 65% 29.94 in 10.0 mi WSW 10.4 mph - N/A   Scattered Clouds
6:53 PM 84.9 °F 92.1 °F 73.9 °F 69% 29.94 in 10.0 mi SW 6.9 mph - N/A   Scattered Clouds
7:53 PM 82.0 °F 87.9 °F 73.9 °F 76% 29.95 in 10.0 mi WNW 5.8 mph - N/A   Partly Cloudy
8:53 PM 82.9 °F 89.4 °F 73.9 °F 74% 29.96 in 10.0 mi WSW 3.5 mph - N/A   Clear
9:53 PM 82.9 °F 89.4 °F 73.9 °F 74% 29.97 in 10.0 mi Calm Calm - N/A   Clear
10:53 PM 80.1 °F 85.1 °F 75.0 °F 85% 29.97 in 10.0 mi East 3.5 mph - N/A   Mostly Cloudy
11:06 PM 80.6 °F 86.2 °F 75.2 °F 84% 29.97 in 10.0 mi East 6.9 mph - N/A   Mostly Cloudy
11:53 PM 77.0 °F - 73.0 °F 88% 29.98 in 10.0 mi ESE 9.2 mph - N/A   Partly Cloudy